sat.trackr.live / text

‹ back to catalog

STARLINK-6049

NORAD 56796 · 2023-078AF

PAYLOAD ACTIVE UNKNOWN

§ Identity

Operator
Country
US
Launch date
2023-05-31
Launch site
AFWTR
Launch vehicle
Mass (kg)
RCS (m²)

Purposes: comms

External: N2YO · Heavens-Above · Gunter

§ Orbital elements

Epoch: 2026-05-25T02:27:40.550688Z

Period
96.11 min
Inclination
69.9984°
Eccentricity
0.0003641
Mean motion
14.98331914 rev/d
Perigee alt
569.5 km
Apogee alt
574.6 km
Semi-major
6,950.2 km
B*
3.9064e-5
RAAN
151.8923°
Arg perigee
266.1881°
Mean anomaly
93.8861°
Rev number
16,412

§ Raw data

STARLINK-60491 56796U 23078AF  26145.10255267  .00000373  00000+0  39064-4 0  99972 56796  69.9984 151.8923 0003641 266.1881  93.8861 14.98331914164127

JSON: /api/v1/satellites/56796 · /tle

For live sub-satellite position, see the globe view (requires WebGL).

§ Visibility from observer

Set your observer location to see the next 7 days of passes ≥ 10°. The values pass through the URL so the page stays shareable.

No JS? Fill the form by hand. The geolocation button needs JavaScript.